N39YK KSAN-KPSP

Flight info

Callsign N39YK
Flight time 0h 47m
Altitude 13000
Route BRDR7 JLI V208 TRM
Aircraft BE9L/L-VGDW/C

Departure

Time 2026-04-26 06:07
Airport San Diego International Airport (KSAN)

Arrival

Time 2026-04-26 06:54
Airport Palm Springs International Airport (KPSP)
Time Latitude Longitude Altitude Speed Heading
2026-04-26 05:44 32.73427 -117.18525 20 ft 0 kts 196°
2026-04-26 05:50 32.73386 -117.18538 20 ft 11 kts 184°
2026-04-26 05:50 32.73340 -117.18426 20 ft 20 kts 105°
2026-04-26 05:51 32.73294 -117.18240 20 ft 26 kts 106°
2026-04-26 05:51 32.73238 -117.18014 20 ft 30 kts 105°
2026-04-26 05:51 32.73179 -117.17766 20 ft 32 kts 108°
2026-04-26 05:51 32.73101 -117.17561 20 ft 18 kts 129°
2026-04-26 05:52 32.73085 -117.17543 20 ft 0 kts 141°
2026-04-26 06:05 32.73080 -117.17539 20 ft 4 kts 141°
2026-04-26 06:06 32.73019 -117.17535 20 ft 14 kts 242°
2026-04-26 06:06 32.73019 -117.17580 20 ft 4 kts 282°
2026-04-26 06:06 32.73116 -117.17997 20 ft 93 kts 286°
2026-04-26 06:06 32.73339 -117.18890 176 ft 121 kts 285°
2026-04-26 06:07 32.73609 -117.19940 420 ft 146 kts 285°
2026-04-26 06:07 32.73957 -117.21147 683 ft 162 kts 288°
2026-04-26 06:07 32.74348 -117.22466 940 ft 173 kts 288°
2026-04-26 06:07 32.74756 -117.23845 1195 ft 180 kts 288°
2026-04-26 06:08 32.75178 -117.25270 1448 ft 185 kts 288°
2026-04-26 06:08 32.75602 -117.26704 1697 ft 187 kts 288°
2026-04-26 06:08 32.76036 -117.28172 1948 ft 189 kts 288°
2026-04-26 06:08 32.76391 -117.29675 2185 ft 189 kts 270°
2026-04-26 06:09 32.75893 -117.31062 2426 ft 187 kts 225°
2026-04-26 06:09 32.74708 -117.31600 2664 ft 190 kts 181°
2026-04-26 06:09 32.73517 -117.30969 2907 ft 195 kts 139°
2026-04-26 06:09 32.72554 -117.29825 3162 ft 195 kts 137°
2026-04-26 06:10 32.71612 -117.28685 3410 ft 195 kts 137°
2026-04-26 06:10 32.70656 -117.27525 3663 ft 194 kts 137°
2026-04-26 06:10 32.69716 -117.26383 3913 ft 193 kts 137°
2026-04-26 06:10 32.68784 -117.25249 4162 ft 192 kts 137°
2026-04-26 06:11 32.67853 -117.24116 4412 ft 191 kts 137°
2026-04-26 06:11 32.66918 -117.22979 4664 ft 190 kts 138°
2026-04-26 06:11 32.66008 -117.21871 4912 ft 189 kts 138°
2026-04-26 06:11 32.65094 -117.20757 5162 ft 188 kts 138°
2026-04-26 06:12 32.64189 -117.19656 5412 ft 186 kts 138°
2026-04-26 06:12 32.63290 -117.18562 5661 ft 185 kts 138°
2026-04-26 06:12 32.62425 -117.17450 5901 ft 187 kts 127°
2026-04-26 06:12 32.62125 -117.15929 6157 ft 191 kts 101°
2026-04-26 06:13 32.62009 -117.14359 6407 ft 190 kts 99°
2026-04-26 06:13 32.61911 -117.12798 6658 ft 189 kts 99°
2026-04-26 06:13 32.61819 -117.11253 6906 ft 188 kts 99°
2026-04-26 06:13 32.61727 -117.09707 7157 ft 187 kts 98°
2026-04-26 06:14 32.61637 -117.08171 7407 ft 186 kts 98°
2026-04-26 06:14 32.61547 -117.06637 7659 ft 185 kts 98°
2026-04-26 06:14 32.61457 -117.05118 7910 ft 184 kts 98°
2026-04-26 06:14 32.61370 -117.03625 8157 ft 183 kts 98°
2026-04-26 06:15 32.61281 -117.02113 8390 ft 183 kts 98°
2026-04-26 06:15 32.61192 -117.00607 8541 ft 186 kts 98°
2026-04-26 06:15 32.61100 -116.99045 8647 ft 191 kts 98°
2026-04-26 06:15 32.61082 -116.97458 8737 ft 197 kts 86°
2026-04-26 06:16 32.61243 -116.95829 8829 ft 199 kts 86°
2026-04-26 06:16 32.61406 -116.94186 8956 ft 199 kts 86°
2026-04-26 06:16 32.61567 -116.92576 9080 ft 199 kts 86°
2026-04-26 06:16 32.61732 -116.90921 9190 ft 199 kts 86°
2026-04-26 06:17 32.61897 -116.89263 9292 ft 200 kts 86°
2026-04-26 06:17 32.62062 -116.87601 9394 ft 200 kts 86°
2026-04-26 06:17 32.62227 -116.85941 9495 ft 200 kts 86°
2026-04-26 06:17 32.62392 -116.84272 9597 ft 200 kts 86°
2026-04-26 06:18 32.62555 -116.82632 9697 ft 200 kts 86°
2026-04-26 06:18 32.62718 -116.80980 9798 ft 200 kts 86°
2026-04-26 06:18 32.62880 -116.79337 9898 ft 200 kts 86°
2026-04-26 06:18 32.63158 -116.77702 9985 ft 204 kts 65°
2026-04-26 06:19 32.64235 -116.76627 10084 ft 211 kts 22°
2026-04-26 06:19 32.65630 -116.76096 10190 ft 211 kts 19°
2026-04-26 06:19 32.67030 -116.75588 10291 ft 211 kts 19°
2026-04-26 06:19 32.68435 -116.75080 10391 ft 211 kts 19°
2026-04-26 06:20 32.69831 -116.74578 10491 ft 211 kts 19°
2026-04-26 06:20 32.71225 -116.74076 10591 ft 211 kts 19°
2026-04-26 06:20 32.72620 -116.73574 10691 ft 210 kts 19°
2026-04-26 06:20 32.74019 -116.73071 10794 ft 210 kts 19°
2026-04-26 06:21 32.75408 -116.72572 10893 ft 208 kts 20°
2026-04-26 06:21 32.76786 -116.72075 10991 ft 206 kts 20°
2026-04-26 06:21 32.78154 -116.71581 11090 ft 206 kts 20°
2026-04-26 06:21 32.79534 -116.71084 11190 ft 205 kts 20°
2026-04-26 06:22 32.80892 -116.70595 11289 ft 205 kts 20°
2026-04-26 06:22 32.82254 -116.70104 11389 ft 205 kts 20°
2026-04-26 06:22 32.83610 -116.69614 11488 ft 205 kts 20°
2026-04-26 06:22 32.84971 -116.69123 11588 ft 205 kts 20°
2026-04-26 06:23 32.86344 -116.68628 11688 ft 205 kts 20°
2026-04-26 06:23 32.87697 -116.68139 11787 ft 205 kts 19°
2026-04-26 06:23 32.89061 -116.67647 11888 ft 205 kts 20°
2026-04-26 06:23 32.90424 -116.67154 11988 ft 205 kts 20°
2026-04-26 06:24 32.91797 -116.66658 12089 ft 205 kts 20°
2026-04-26 06:24 32.93162 -116.66164 12189 ft 205 kts 20°
2026-04-26 06:24 32.94522 -116.65673 12289 ft 205 kts 20°
2026-04-26 06:24 32.95881 -116.65181 12390 ft 205 kts 20°
2026-04-26 06:25 32.97242 -116.64688 12490 ft 205 kts 20°
2026-04-26 06:25 32.98613 -116.64192 12591 ft 205 kts 20°
2026-04-26 06:25 32.99990 -116.63693 12693 ft 205 kts 20°
2026-04-26 06:25 33.01340 -116.63204 12816 ft 204 kts 20°
2026-04-26 06:26 33.02702 -116.62711 12938 ft 203 kts 20°
2026-04-26 06:26 33.04053 -116.62220 12961 ft 208 kts 20°
2026-04-26 06:26 33.05454 -116.61712 12964 ft 210 kts 19°
2026-04-26 06:26 33.06858 -116.61202 12964 ft 212 kts 19°
2026-04-26 06:27 33.08265 -116.60692 12964 ft 213 kts 19°
2026-04-26 06:27 33.09689 -116.60175 12964 ft 213 kts 19°
2026-04-26 06:27 33.11111 -116.59659 12962 ft 214 kts 19°
2026-04-26 06:27 33.12459 -116.59169 12962 ft 214 kts 19°
2026-04-26 06:28 33.13940 -116.58603 12952 ft 213 kts 27°
2026-04-26 06:28 33.15156 -116.57612 12959 ft 210 kts 38°
2026-04-26 06:28 33.16344 -116.56589 12954 ft 211 kts 38°
2026-04-26 06:28 33.17535 -116.55561 12950 ft 211 kts 38°
2026-04-26 06:29 33.18713 -116.54542 12945 ft 211 kts 38°
2026-04-26 06:29 33.19895 -116.53516 12939 ft 211 kts 38°
2026-04-26 06:29 33.21093 -116.52477 12933 ft 211 kts 38°
2026-04-26 06:29 33.22279 -116.51447 12926 ft 212 kts 38°
2026-04-26 06:30 33.23476 -116.50407 12918 ft 212 kts 38°
2026-04-26 06:30 33.24669 -116.49370 12909 ft 212 kts 38°
2026-04-26 06:30 33.25851 -116.48343 12900 ft 212 kts 38°
2026-04-26 06:30 33.27045 -116.47304 12890 ft 212 kts 38°
2026-04-26 06:31 33.28236 -116.46267 12879 ft 213 kts 38°
2026-04-26 06:31 33.29430 -116.45228 12870 ft 213 kts 38°
2026-04-26 06:31 33.30630 -116.44183 12864 ft 213 kts 38°
2026-04-26 06:31 33.31818 -116.43147 12858 ft 212 kts 38°
2026-04-26 06:32 33.33011 -116.42108 12853 ft 212 kts 38°
2026-04-26 06:32 33.34206 -116.41066 12753 ft 217 kts 38°
2026-04-26 06:32 33.35466 -116.39965 12468 ft 226 kts 38°
2026-04-26 06:32 33.36700 -116.38889 12111 ft 219 kts 38°
2026-04-26 06:33 33.37922 -116.37824 11730 ft 214 kts 38°
2026-04-26 06:33 33.39125 -116.36772 11348 ft 211 kts 38°
2026-04-26 06:33 33.40302 -116.35745 10969 ft 208 kts 38°
2026-04-26 06:33 33.41469 -116.34725 10590 ft 206 kts 39°
2026-04-26 06:34 33.42635 -116.33706 10209 ft 204 kts 38°
2026-04-26 06:34 33.43772 -116.32712 9835 ft 203 kts 38°
2026-04-26 06:34 33.44929 -116.31699 9452 ft 201 kts 38°
2026-04-26 06:34 33.46053 -116.30717 9078 ft 200 kts 38°
2026-04-26 06:35 33.47156 -116.29752 8873 ft 190 kts 38°
2026-04-26 06:35 33.48135 -116.28807 8833 ft 174 kts 55°
2026-04-26 06:35 33.48584 -116.27535 8844 ft 161 kts 72°
2026-04-26 06:35 33.48959 -116.26255 8846 ft 164 kts 72°
2026-04-26 06:36 33.49339 -116.24950 8781 ft 171 kts 72°
2026-04-26 06:36 33.49746 -116.23543 8545 ft 184 kts 72°
2026-04-26 06:36 33.50174 -116.22044 8248 ft 195 kts 72°
2026-04-26 06:36 33.50613 -116.20491 7958 ft 202 kts 72°
2026-04-26 06:37 33.51061 -116.18896 7858 ft 198 kts 72°
2026-04-26 06:37 33.51492 -116.17362 7844 ft 191 kts 72°
2026-04-26 06:37 33.51911 -116.15874 7841 ft 182 kts 72°
2026-04-26 06:37 33.52314 -116.14438 7607 ft 187 kts 72°
2026-04-26 06:38 33.52732 -116.12933 7310 ft 193 kts 72°
2026-04-26 06:38 33.53154 -116.11395 7013 ft 196 kts 72°
2026-04-26 06:38 33.53575 -116.09844 6710 ft 191 kts 72°
2026-04-26 06:38 33.53963 -116.08395 6403 ft 177 kts 72°
2026-04-26 06:39 33.54324 -116.07033 6099 ft 169 kts 72°
2026-04-26 06:39 33.54667 -116.05712 5797 ft 165 kts 72°
2026-04-26 06:39 33.55001 -116.04412 5494 ft 162 kts 72°
2026-04-26 06:39 33.55327 -116.03127 5191 ft 159 kts 72°
2026-04-26 06:40 33.55638 -116.01865 4917 ft 155 kts 72°
2026-04-26 06:40 33.55925 -116.00693 4851 ft 139 kts 72°
2026-04-26 06:40 33.56182 -115.99640 4840 ft 122 kts 72°
2026-04-26 06:40 33.56441 -115.98757 4832 ft 103 kts 52°
2026-04-26 06:41 33.56976 -115.98364 4790 ft 88 kts
2026-04-26 06:41 33.57551 -115.98569 4626 ft 89 kts 322°
2026-04-26 06:41 33.57846 -115.99232 4412 ft 96 kts 280°
2026-04-26 06:41 33.57965 -115.99996 4266 ft 99 kts 285°
2026-04-26 06:42 33.58111 -116.00781 4734 ft 97 kts 287°
2026-04-26 06:42 33.58318 -116.01710 4850 ft 133 kts 289°
2026-04-26 06:42 33.58623 -116.02891 4861 ft 164 kts 290°
2026-04-26 06:42 33.59014 -116.04232 4986 ft 179 kts 292°
2026-04-26 06:43 33.59467 -116.05682 5104 ft 189 kts 292°
2026-04-26 06:43 33.59950 -116.07188 5101 ft 193 kts 292°
2026-04-26 06:43 33.60438 -116.08698 5097 ft 191 kts 293°
2026-04-26 06:43 33.60914 -116.10169 5097 ft 189 kts 293°
2026-04-26 06:44 33.61388 -116.11631 5097 ft 188 kts 293°
2026-04-26 06:44 33.61866 -116.13107 5098 ft 188 kts 293°
2026-04-26 06:44 33.62338 -116.14562 5098 ft 187 kts 293°
2026-04-26 06:44 33.62820 -116.15997 5092 ft 186 kts 300°
2026-04-26 06:45 33.63528 -116.17310 5092 ft 186 kts 296°
2026-04-26 06:45 33.63875 -116.18801 5090 ft 185 kts 301°
2026-04-26 06:45 33.64617 -116.20052 5100 ft 184 kts 305°
2026-04-26 06:45 33.65300 -116.21357 5055 ft 187 kts 303°
2026-04-26 06:46 33.65974 -116.22732 4883 ft 195 kts 302°
2026-04-26 06:46 33.66655 -116.24159 4679 ft 202 kts 301°
2026-04-26 06:46 33.67327 -116.25578 4604 ft 183 kts 301°
2026-04-26 06:46 33.67914 -116.26823 4591 ft 160 kts 302°
2026-04-26 06:47 33.68428 -116.27913 4589 ft 141 kts 302°
2026-04-26 06:47 33.68879 -116.28870 4587 ft 123 kts 302°
2026-04-26 06:47 33.69268 -116.29696 4583 ft 104 kts 303°
2026-04-26 06:47 33.69601 -116.30404 4505 ft 94 kts 303°
2026-04-26 06:48 33.69924 -116.31087 4272 ft 100 kts 302°
2026-04-26 06:48 33.70354 -116.31879 3813 ft 140 kts 296°
2026-04-26 06:48 33.70656 -116.33235 3482 ft 189 kts 285°
2026-04-26 06:48 33.70970 -116.34798 3408 ft 189 kts 285°
2026-04-26 06:49 33.71339 -116.36283 3283 ft 183 kts 300°
2026-04-26 06:49 33.72064 -116.37466 3133 ft 172 kts 313°
2026-04-26 06:49 33.72841 -116.38494 3099 ft 159 kts 315°
2026-04-26 06:49 33.73575 -116.39429 3096 ft 150 kts 315°
2026-04-26 06:50 33.74292 -116.40334 2947 ft 149 kts 316°
2026-04-26 06:50 33.74967 -116.41187 2738 ft 131 kts 316°
2026-04-26 06:50 33.75564 -116.41941 2546 ft 118 kts 316°
2026-04-26 06:50 33.76106 -116.42626 2373 ft 110 kts 316°
2026-04-26 06:51 33.76640 -116.43300 2209 ft 111 kts 316°
2026-04-26 06:51 33.77724 -116.44670 1866 ft 114 kts 316°
2026-04-26 06:51 33.78275 -116.45367 1688 ft 115 kts 316°
2026-04-26 06:52 33.78827 -116.46066 1510 ft 116 kts 316°
2026-04-26 06:52 33.79387 -116.46774 1329 ft 116 kts 316°
2026-04-26 06:52 33.79947 -116.47482 1148 ft 116 kts 315°
2026-04-26 06:52 33.80501 -116.48183 970 ft 116 kts 315°
2026-04-26 06:53 33.81053 -116.48882 792 ft 113 kts 315°
2026-04-26 06:53 33.81567 -116.49534 630 ft 103 kts 315°
2026-04-26 06:53 33.82131 -116.50044 502 ft 99 kts 328°
2026-04-26 06:53 33.82648 -116.50470 480 ft 74 kts 324°
2026-04-26 06:54 33.82993 -116.50780 480 ft 54 kts 323°
2026-04-26 06:54 33.83263 -116.51028 480 ft 37 kts 322°
2026-04-26 06:54 33.83321 -116.51208 480 ft 1 kts 303°